�N����,����,�~����,�C��,���x,�C��,����,���ϕ���,�ő�u�ԕ���,�ő厞����,���˗�,�I�_���x,�n�����x,�ő啗���N��,DTYPE
"24/01/27","00:10",0.0,4.1,81.3,1017.8,302.5,4.5,8.8,320.3,0.00,1.2,6.3,"00:01:16",1
"24/01/27","00:20",0.0,4.0,81.5,1017.3,317.8,3.2,5.6,344.7,0.00,1.2,6.4,"00:13:28",1
"24/01/27","00:30",0.0,3.9,82.1,1017.3,301.7,3.7,7.1,330.9,0.00,1.2,6.3,"00:29:56",1
"24/01/27","00:40",0.0,3.9,82.5,1017.3,315.5,4.9,8.5,333.1,0.00,1.2,6.1,"00:30:16",1
"24/01/27","00:50",0.0,3.9,82.8,1017.1,314.9,4.4,6.0,328.3,0.00,1.3,6.3,"00:40:32",1
"24/01/27","01:00",0.0,3.8,83.1,1017.1,327.2,4.0,7.0,339.0,0.00,1.2,6.4,"00:52:02",1
"24/01/27","01:10",0.0,3.8,83.4,1016.8,324.3,4.2,5.9,338.2,0.00,1.3,6.5,"01:05:50",1
"24/01/27","01:20",0.0,3.9,83.5,1017.1,311.8,3.4,5.5,319.9,0.00,1.4,6.4,"01:11:38",1
"24/01/27","01:30",0.0,3.9,83.4,1017.1,319.0,3.5,4.9,329.2,0.00,1.4,6.3,"01:25:56",1
"24/01/27","01:40",0.0,3.9,83.2,1017.3,327.2,3.5,5.0,324.0,0.00,1.4,6.2,"01:39:46",1
"24/01/27","01:50",0.0,3.8,83.0,1017.3,339.6,2.1,5.0,330.7,0.00,1.2,6.4,"01:42:54",1
"24/01/27","02:00",0.0,3.6,83.2,1017.1,327.5,1.2,2.5,335.7,0.00,1.1,6.5,"01:56:10",1
"24/01/27","02:10",0.0,3.6,83.5,1017.1,303.2,1.6,4.0,308.4,0.00,1.1,6.3,"02:06:10",1
"24/01/27","02:20",0.0,3.7,83.8,1017.3,313.6,2.6,4.2,309.5,0.00,1.3,6.4,"02:14:16",1
"24/01/27","02:30",0.0,3.6,84.1,1017.1,333.2,2.0,3.5,343.4,0.00,1.2,6.2,"02:21:30",1
"24/01/27","02:40",0.0,3.6,84.4,1017.3,326.8,1.5,2.1,322.0,0.00,1.3,6.4,"02:39:58",1
"24/01/27","02:50",0.0,3.7,84.7,1017.1,325.1,3.2,4.4,314.2,0.00,1.4,6.2,"02:41:04",1
"24/01/27","03:00",0.0,3.8,84.8,1017.3,323.1,3.6,6.0,326.8,0.00,1.5,6.2,"02:55:52",1
"24/01/27","03:10",0.0,3.8,84.8,1017.5,319.7,3.6,5.4,328.3,0.00,1.5,6.3,"03:09:24",1
"24/01/27","03:20",0.0,3.8,84.8,1017.3,316.8,3.2,4.3,323.5,0.00,1.5,6.3,"03:11:12",1
"24/01/27","03:30",0.0,3.9,84.6,1017.5,315.0,4.0,6.6,314.1,0.00,1.6,6.2,"03:24:58",1
"24/01/27","03:40",0.0,3.9,84.4,1017.3,311.1,3.4,5.1,325.4,0.00,1.6,6.2,"03:33:12",1
"24/01/27","03:50",0.0,4.0,84.3,1017.3,328.6,4.1,5.7,323.4,0.00,1.6,6.3,"03:42:42",1
"24/01/27","04:00",0.0,3.9,84.2,1017.1,322.0,3.0,4.3,330.5,0.00,1.5,6.2,"03:51:36",1
"24/01/27","04:10",0.0,3.9,84.3,1017.3,325.4,2.8,4.7,326.7,0.00,1.5,6.2,"04:05:52",1
"24/01/27","04:20",0.0,3.8,84.5,1017.1,310.4,3.0,4.3,323.5,0.00,1.5,6.3,"04:10:48",1
"24/01/27","04:30",0.0,3.8,84.7,1017.3,304.7,3.0,4.3,324.9,0.00,1.5,6.4,"04:20:24",1
"24/01/27","04:40",0.0,3.9,84.7,1017.1,302.4,3.1,5.2,315.8,0.00,1.6,6.2,"04:36:32",1
"24/01/27","04:50",0.0,3.9,84.7,1017.3,312.2,3.2,4.8,318.9,0.00,1.6,6.2,"04:43:14",1
"24/01/27","05:00",0.0,3.8,84.8,1017.3,317.8,3.5,5.6,313.7,0.00,1.5,6.2,"04:54:24",1
"24/01/27","05:10",0.0,3.8,84.9,1017.3,315.0,3.5,6.2,335.1,0.00,1.5,6.0,"05:07:44",1
"24/01/27","05:20",0.0,3.8,85.1,1016.8,319.1,3.5,5.6,322.6,0.00,1.6,6.1,"05:12:48",1
"24/01/27","05:30",0.0,3.7,85.3,1017.1,322.1,3.1,4.5,316.3,0.00,1.5,6.3,"05:25:52",1
"24/01/27","05:40",0.0,3.6,85.6,1016.8,332.0,1.8,3.4,321.9,0.00,1.5,6.2,"05:30:32",1
"24/01/27","05:50",0.0,3.5,85.9,1016.8,332.4,1.7,2.5,352.4,0.00,1.4,6.3,"05:46:00",1
"24/01/27","06:00",0.0,3.4,86.3,1016.8,325.0,2.2,4.2,327.8,0.00,1.4,6.0,"05:52:10",1
"24/01/27","06:10",0.0,3.4,86.6,1016.8,329.1,1.7,3.4,325.7,0.00,1.4,6.3,"06:02:16",1
"24/01/27","06:20",0.0,3.2,86.8,1017.1,339.6,1.6,2.8,335.0,0.00,1.3,6.2,"06:10:32",1
"24/01/27","06:30",0.0,3.1,87.3,1017.1,333.6,1.3,2.1,336.4,0.00,1.2,6.2,"06:20:24",1
"24/01/27","06:40",0.0,3.0,87.6,1017.3,304.0,1.2,2.2,325.9,0.00,1.2,6.3,"06:37:28",1
"24/01/27","06:50",0.0,3.1,87.9,1017.8,327.3,1.6,2.7,330.1,0.00,1.3,6.3,"06:49:28",1
"24/01/27","07:00",0.0,3.2,88.2,1017.5,309.6,2.3,3.7,304.5,0.00,1.5,5.9,"06:55:44",1
"24/01/27","07:10",0.0,3.3,88.4,1017.5,315.8,2.7,4.5,331.8,0.00,1.6,6.2,"07:03:46",1
"24/01/27","07:20",0.0,3.3,88.5,1017.5,309.5,2.3,3.4,309.4,0.00,1.6,6.3,"07:13:12",1
"24/01/27","07:30",0.0,3.5,88.6,1017.3,322.9,2.8,4.0,339.2,0.00,1.8,6.0,"07:29:30",1
"24/01/27","07:40",0.0,3.5,88.6,1017.5,318.6,3.1,5.0,315.3,0.00,1.8,6.2,"07:38:40",1
"24/01/27","07:50",0.0,3.6,88.5,1017.5,326.6,3.4,4.3,335.5,0.00,1.9,5.9,"07:48:10",1
"24/01/27","08:00",0.0,3.7,88.2,1017.8,316.3,3.0,4.9,327.5,0.00,2.0,6.2,"07:58:18",1
"24/01/27","08:10",0.0,3.8,87.9,1017.8,325.9,3.5,4.9,322.5,0.01,2.0,6.0,"08:04:10",1
"24/01/27","08:20",0.0,4.0,87.4,1018.0,317.9,3.5,5.2,318.6,0.03,2.1,6.2,"08:19:44",1
"24/01/27","08:30",0.0,4.2,86.9,1018.2,323.5,3.6,5.1,338.6,0.04,2.3,6.2,"08:27:20",1
"24/01/27","08:40",0.0,4.4,86.1,1018.7,309.5,3.7,5.4,297.6,0.02,2.3,6.2,"08:30:08",1
"24/01/27","08:50",0.0,4.5,85.4,1018.5,313.5,3.6,6.6,320.2,0.04,2.3,6.1,"08:40:32",1
"24/01/27","09:00",0.0,4.6,84.9,1018.7,312.7,3.6,5.0,308.2,0.06,2.3,6.2,"08:56:24",1
"24/01/27","09:10",0.0,4.7,84.4,1018.7,311.2,4.0,6.4,319.9,0.08,2.3,6.2,"09:06:10",1
"24/01/27","09:20",0.0,4.9,83.8,1018.7,309.3,4.1,6.6,325.2,0.14,2.4,6.0,"09:16:56",1
"24/01/27","09:30",0.0,5.1,83.0,1019.0,314.9,4.1,6.6,320.7,0.15,2.5,6.1,"09:22:40",1
"24/01/27","09:40",0.0,5.4,82.1,1019.2,313.0,4.5,6.4,310.9,0.19,2.6,6.0,"09:31:28",1
"24/01/27","09:50",0.0,5.7,80.9,1019.0,298.0,3.5,5.7,312.2,0.20,2.7,6.3,"09:40:56",1
"24/01/27","10:00",0.0,5.8,80.0,1019.2,290.0,3.4,5.6,297.0,0.21,2.7,6.3,"09:52:32",1
"24/01/27","10:10",0.0,6.0,79.0,1019.2,286.7,3.2,6.2,311.2,0.23,2.7,6.2,"10:09:54",1
"24/01/27","10:20",0.0,6.2,78.2,1018.7,281.3,3.1,5.2,341.8,0.24,2.7,6.4,"10:14:40",1
"24/01/27","10:30",0.0,6.6,76.9,1019.0,287.3,3.4,6.2,321.4,0.34,2.9,6.3,"10:21:36",1
"24/01/27","10:40",0.0,7.0,76.7,1019.0,288.1,3.1,6.2,301.8,0.46,3.2,6.5,"10:32:00",1
"24/01/27","10:50",0.0,7.5,73.8,1019.2,294.6,2.7,6.2,314.1,0.49,3.2,6.6,"10:48:50",1
"24/01/27","11:00",0.0,7.3,72.3,1019.2,287.3,3.6,6.2,329.6,0.33,2.7,6.4,"10:54:50",1
"24/01/27","11:10",0.0,7.1,72.4,1019.4,292.3,3.7,5.7,323.4,0.24,2.5,6.7,"11:09:30",1
"24/01/27","11:20",0.0,7.3,72.8,1019.0,297.6,3.6,5.4,338.4,0.26,2.8,6.8,"11:10:16",1
"24/01/27","11:30",0.0,7.3,72.1,1019.2,302.1,3.5,5.4,305.4,0.32,2.7,6.6,"11:24:00",1
"24/01/27","11:40",0.0,7.3,72.0,1018.7,287.6,2.7,4.7,313.8,0.22,2.6,6.9,"11:39:36",1
"24/01/27","11:50",0.0,7.8,72.5,1019.0,283.8,3.0,4.8,255.5,0.37,3.2,7.0,"11:46:56",1
"24/01/27","12:00",0.0,8.0,71.2,1018.5,287.6,2.8,4.3,254.3,0.34,3.1,6.9,"11:53:38",1
"24/01/27","12:10",0.0,7.8,70.8,1018.2,293.2,3.5,6.0,333.1,0.38,2.9,6.9,"12:04:32",1
"24/01/27","12:20",0.0,8.1,70.2,1018.0,268.5,2.8,5.8,251.6,0.36,3.0,7.1,"12:19:58",1
"24/01/27","12:30",0.0,8.1,69.5,1017.8,295.6,3.4,5.4,326.4,0.41,2.9,7.2,"12:22:02",1
"24/01/27","12:40",0.0,8.1,68.5,1017.5,276.2,3.5,5.7,240.0,0.44,2.7,6.9,"12:39:36",1
"24/01/27","12:50",0.0,8.9,69.2,1017.3,269.6,3.0,5.5,326.7,0.62,3.6,7.3,"12:42:48",1
"24/01/27","13:00",0.0,8.8,67.0,1017.8,293.2,3.6,6.4,308.7,0.65,3.1,7.3,"12:57:02",1
"24/01/27","13:10",0.0,8.3,66.7,1017.5,291.4,2.8,4.8,306.3,0.24,2.5,7.4,"13:07:42",1
"24/01/27","13:20",0.0,8.2,67.1,1017.1,310.1,3.2,6.7,343.3,0.21,2.5,7.6,"13:19:52",1
"24/01/27","13:30",0.0,7.9,67.8,1016.8,331.8,2.8,7.1,337.9,0.13,2.4,7.7,"13:21:36",1
"24/01/27","13:40",0.0,8.1,67.4,1017.3,327.3,4.0,6.0,340.4,0.30,2.5,7.6,"13:30:16",1
"24/01/27","13:50",0.0,8.2,66.4,1017.1,313.7,2.7,5.9,343.1,0.18,2.4,7.6,"13:40:08",1
"24/01/27","14:00",0.0,8.0,67.1,1016.8,332.7,3.2,6.3,330.4,0.12,2.3,7.8,"13:54:56",1
"24/01/27","14:10",0.0,7.8,67.8,1017.3,335.5,3.7,7.1,318.8,0.10,2.3,7.8,"14:07:04",1
"24/01/27","14:20",0.0,8.1,68.0,1017.1,329.3,3.0,6.6,331.9,0.21,2.6,7.6,"14:12:56",1
"24/01/27","14:30",0.0,8.1,65.9,1017.3,328.1,3.5,6.2,348.9,0.23,2.2,7.9,"14:24:28",1
"24/01/27","14:40",0.0,8.2,66.2,1017.1,346.6,2.3,5.0,358.7,0.17,2.3,8.0,"14:35:00",1
"24/01/27","14:50",0.0,8.1,66.0,1016.8,335.8,3.1,5.7,347.6,0.18,2.2,8.0,"14:44:48",1
"24/01/27","15:00",0.0,8.2,65.3,1017.1,308.0,2.3,4.2,311.3,0.11,2.1,7.9,"14:57:12",1
"24/01/27","15:10",0.0,7.8,65.4,1017.1,306.3,3.2,4.9,306.9,0.07,1.8,8.2,"15:09:44",1
"24/01/27","15:20",0.0,7.7,65.5,1016.6,306.9,3.9,5.9,327.2,0.11,1.7,8.0,"15:13:12",1
"24/01/27","15:30",0.0,7.8,65.5,1017.1,312.7,3.2,5.8,322.3,0.16,1.8,8.0,"15:20:24",1
"24/01/27","15:40",0.0,8.2,65.1,1017.3,329.4,3.2,6.8,346.5,0.13,2.1,8.1,"15:32:50",1
"24/01/27","15:50",0.0,8.3,63.7,1017.1,326.9,3.6,6.2,310.7,0.18,1.9,8.1,"15:46:32",1
"24/01/27","16:00",0.0,8.4,64.5,1017.3,339.1,2.7,5.0,353.7,0.13,2.1,8.2,"15:55:48",1
"24/01/27","16:10",0.0,7.9,66.6,1017.3,349.8,3.5,6.0,352.0,0.10,2.1,7.8,"16:06:20",1
"24/01/27","16:20",0.0,7.6,68.7,1017.5,345.1,3.6,5.8,335.9,0.09,2.3,8.1,"16:15:20",1
"24/01/27","16:30",0.0,8.1,68.9,1017.3,343.1,2.8,5.5,327.2,0.14,2.8,8.1,"16:22:32",1
"24/01/27","16:40",0.0,7.8,70.0,1017.3,2.4,2.1,4.2,351.7,0.08,2.7,8.2,"16:30:40",1
"24/01/27","16:50",0.0,7.1,72.3,1017.5,356.1,2.5,5.4,7.6,0.03,2.5,8.1,"16:41:46",1
"24/01/27","17:00",0.0,6.4,74.1,1017.3,352.4,2.7,5.2,351.7,0.00,2.2,8.1,"16:52:08",1
"24/01/27","17:10",0.0,6.1,75.1,1017.3,349.4,2.5,4.0,354.0,0.00,2.1,8.0,"17:02:48",1
"24/01/27","17:20",0.0,5.8,75.7,1017.3,347.2,2.1,3.6,342.0,0.00,1.9,8.2,"17:11:04",1
"24/01/27","17:30",0.0,5.4,76.4,1017.1,341.2,2.0,3.1,334.2,0.00,1.6,7.9,"17:29:36",1
"24/01/27","17:40",0.0,4.9,77.2,1017.3,328.1,1.8,3.2,336.7,0.00,1.3,8.0,"17:37:04",1
"24/01/27","17:50",0.0,4.5,78.3,1017.3,329.2,2.1,2.6,325.8,0.00,1.1,7.9,"17:41:36",1
"24/01/27","18:00",0.0,4.1,79.5,1017.1,324.3,2.1,3.3,312.9,0.00,0.9,8.1,"17:58:36",1
"24/01/27","18:10",0.0,4.0,80.7,1017.1,300.4,2.0,2.7,289.1,0.00,1.0,8.0,"18:09:56",1
"24/01/27","18:20",0.0,3.7,81.8,1016.8,295.7,1.8,2.2,300.3,0.00,0.9,8.0,"18:12:02",1
"24/01/27","18:30",0.0,3.5,83.2,1016.8,296.3,2.1,3.4,322.1,0.00,1.0,7.9,"18:26:04",1
"24/01/27","18:40",0.0,3.2,84.8,1016.8,310.4,2.3,2.8,315.3,0.00,0.9,8.0,"18:30:32",1
"24/01/27","18:50",0.0,3.0,86.1,1016.8,305.5,1.8,2.7,322.8,0.00,0.9,7.8,"18:41:28",1
"24/01/27","19:00",0.0,2.8,87.2,1016.8,293.0,2.0,2.6,300.4,0.00,0.9,7.8,"18:54:12",1
"24/01/27","19:10",0.0,2.6,88.0,1016.6,309.6,2.1,2.7,319.4,0.00,0.9,7.7,"19:05:56",1
"24/01/27","19:20",0.0,2.4,88.8,1016.8,298.8,1.8,2.6,300.9,0.00,0.8,7.7,"19:10:56",1
"24/01/27","19:30",0.0,2.4,89.4,1016.6,285.9,1.6,2.2,315.3,0.00,0.9,7.6,"19:23:54",1
"24/01/27","19:40",0.0,2.5,90.0,1016.8,309.9,2.0,3.1,330.0,0.00,1.1,7.6,"19:39:50",1
"24/01/27","19:50",0.0,2.7,90.4,1016.6,310.5,2.6,3.6,338.2,0.00,1.3,7.4,"19:40:08",1
"24/01/27","20:00",0.0,2.9,90.6,1016.6,307.1,2.5,4.2,338.0,0.00,1.6,7.5,"19:51:54",1
"24/01/27","20:10",0.0,3.0,90.7,1016.6,306.8,2.6,4.9,338.1,0.00,1.7,7.4,"20:09:14",1
"24/01/27","20:20",0.0,3.2,90.6,1016.8,329.0,3.7,5.0,327.4,0.00,1.9,7.4,"20:15:44",1
"24/01/27","20:30",0.0,3.3,90.3,1017.3,334.1,3.5,5.1,341.9,0.00,1.9,7.3,"20:22:04",1
"24/01/27","20:40",0.0,3.3,90.2,1016.8,326.1,2.8,4.5,331.9,0.00,1.9,7.3,"20:33:48",1
"24/01/27","20:50",0.0,3.2,90.0,1016.8,329.5,2.1,3.2,332.9,0.00,1.8,7.2,"20:41:30",1
"24/01/27","21:00",0.0,3.1,89.9,1016.6,322.7,1.3,2.0,339.3,0.00,1.6,7.3,"20:51:12",1
"24/01/27","21:10",0.0,2.9,89.8,1017.1,287.4,1.2,2.0,319.3,0.00,1.4,7.3,"21:09:22",1
"24/01/27","21:20",0.0,2.7,89.9,1016.8,310.7,1.7,2.2,311.3,0.00,1.3,7.2,"21:11:30",1
"24/01/27","21:30",0.0,2.6,90.0,1016.4,307.1,1.5,2.5,337.1,0.00,1.2,7.2,"21:26:12",1
"24/01/27","21:40",0.0,2.3,90.2,1016.6,287.1,1.2,1.8,261.3,0.00,0.9,7.2,"21:35:32",1
"24/01/27","21:50",0.0,2.1,90.4,1015.9,296.6,1.5,2.2,307.6,0.00,0.7,7.1,"21:49:58",1
"24/01/27","22:00",0.0,2.0,90.7,1016.4,329.6,1.8,3.6,340.4,0.00,0.7,7.0,"21:51:54",1
"24/01/27","22:10",0.0,1.7,91.1,1015.9,326.2,1.7,2.4,328.7,0.00,0.4,7.2,"22:00:40",1
"24/01/27","22:20",0.0,1.5,91.4,1015.9,302.4,1.7,2.4,303.8,0.00,0.3,7.0,"22:11:44",1
"24/01/27","22:30",0.0,1.6,91.8,1015.9,286.7,2.0,2.5,301.3,0.00,0.5,7.1,"22:22:32",1
"24/01/27","22:40",0.0,1.8,92.2,1015.6,324.3,2.6,3.9,331.7,0.00,0.7,6.8,"22:36:24",1
"24/01/27","22:50",0.0,1.9,92.5,1015.6,322.2,2.7,3.5,310.4,0.00,0.9,7.0,"22:44:16",1
"24/01/27","23:00",0.0,1.8,92.7,1015.6,294.7,2.1,2.8,314.2,0.00,0.8,6.7,"22:50:20",1
"24/01/27","23:10",0.0,1.8,92.9,1015.4,298.5,2.1,2.8,302.7,0.00,0.8,6.8,"23:02:40",1
"24/01/27","23:20",0.0,1.7,93.2,1015.6,307.8,2.5,3.5,319.0,0.00,0.8,6.7,"23:17:08",1
"24/01/27","23:30",0.0,1.7,93.5,1015.9,293.4,2.1,3.5,315.4,0.00,0.8,6.7,"23:29:32",1
"24/01/27","23:40",0.0,1.8,93.5,1016.1,322.6,2.6,4.0,325.9,0.00,0.9,6.9,"23:33:36",1
"24/01/27","23:50",0.0,1.9,93.8,1015.9,331.3,2.0,3.3,349.9,0.00,1.0,6.7,"23:49:34",1
"24/01/27","24:00",0.0,2.2,93.7,1015.9,329.3,2.2,4.3,323.1,0.00,1.3,6.6,"23:56:20",1
